Time,TemperatureF,DewpointF,PressureIn,WindDirection,WindDirectionDegrees,WindSpeedMPH,WindSpeedGustMPH,Humidity,HourlyPrecipIn,Conditions,Clouds,dailyrainin,SoftwareType,DateUTC
2013-02-17 00:04:00,27.1,23.0,30.05,West,270,5.1,-999.0,84,-99.99,,,0.00,Acu-Link.com,2013-02-17 05:04:00,
2013-02-17 00:20:00,27.3,21.4,30.04,West,270,3.1,-999.0,78,-99.99,,,0.00,Acu-Link.com,2013-02-17 05:20:00,
2013-02-17 00:35:00,27.3,20.5,30.04,ESE,112,3.1,-999.0,75,-99.99,,,0.00,Acu-Link.com,2013-02-17 05:35:00,
2013-02-17 00:50:00,27.1,20.0,30.02,WNW,292,13.0,-999.0,74,-99.99,,,0.00,Acu-Link.com,2013-02-17 05:50:00,
2013-02-17 01:05:00,27.1,20.0,30.03,ENE,67,4.3,-999.0,74,-99.99,,,0.00,Acu-Link.com,2013-02-17 06:05:00,
2013-02-17 01:21:00,26.8,19.6,30.04,ENE,67,3.8,-999.0,74,-99.99,,,0.00,Acu-Link.com,2013-02-17 06:21:00,
2013-02-17 01:36:00,26.6,17.8,30.02,West,270,3.1,-999.0,69,-99.99,,,0.00,Acu-Link.com,2013-02-17 06:36:00,
2013-02-17 01:51:00,26.2,16.1,30.03,WNW,292,7.8,-999.0,65,-99.99,,,0.00,Acu-Link.com,2013-02-17 06:51:00,
2013-02-17 02:06:00,25.9,16.1,30.02,WNW,292,2.7,-999.0,66,-99.99,,,0.00,Acu-Link.com,2013-02-17 07:06:00,
2013-02-17 02:21:00,25.7,15.2,30.00,ENE,67,8.9,-999.0,64,-99.99,,,0.00,Acu-Link.com,2013-02-17 07:21:00,
2013-02-17 02:37:00,25.3,14.5,30.00,East,90,6.7,-999.0,63,-99.99,,,0.00,Acu-Link.com,2013-02-17 07:37:00,
2013-02-17 02:52:00,25.0,14.9,30.01,WSW,247,6.3,-999.0,65,-99.99,,,0.00,Acu-Link.com,2013-02-17 07:52:00,
2013-02-17 03:07:00,24.8,14.7,30.01,SW,225,2.7,-999.0,65,-99.99,,,0.00,Acu-Link.com,2013-02-17 08:07:00,
2013-02-17 03:22:00,24.6,12.7,30.00,WNW,292,10.3,-999.0,60,-99.99,,,0.00,Acu-Link.com,2013-02-17 08:22:00,
2013-02-17 03:37:00,24.4,12.9,29.98,West,270,5.8,-999.0,61,-99.99,,,0.00,Acu-Link.com,2013-02-17 08:37:00,
2013-02-17 03:53:00,24.3,12.0,29.99,NE,45,2.7,-999.0,59,-99.99,,,0.00,Acu-Link.com,2013-02-17 08:53:00,
2013-02-17 04:17:00,24.3,11.6,29.99,ESE,112,2.7,-999.0,58,-99.99,,,0.00,Acu-Link.com,2013-02-17 09:17:00,
2013-02-17 04:32:00,23.7,10.7,29.97,SSE,157,3.1,-999.0,57,-99.99,,,0.00,Acu-Link.com,2013-02-17 09:32:00,
2013-02-17 04:47:00,23.2,10.6,29.97,ENE,67,6.3,-999.0,58,-99.99,,,0.00,Acu-Link.com,2013-02-17 09:47:00,
2013-02-17 05:03:00,22.6,9.7,29.96,West,270,5.8,-999.0,57,-99.99,,,0.00,Acu-Link.com,2013-02-17 10:03:00,
2013-02-17 05:18:00,21.9,9.8,29.97,WNW,292,4.3,-999.0,59,-99.99,,,0.00,Acu-Link.com,2013-02-17 10:18:00,
2013-02-17 05:33:00,21.2,9.9,29.97,NW,315,6.3,-999.0,61,-99.99,,,0.00,Acu-Link.com,2013-02-17 10:33:00,
2013-02-17 05:48:00,20.8,9.5,29.96,WNW,292,4.7,-999.0,61,-99.99,,,0.00,Acu-Link.com,2013-02-17 10:48:00,
2013-02-17 06:03:00,20.5,8.8,29.94,South,180,5.1,-999.0,60,-99.99,,,0.00,Acu-Link.com,2013-02-17 11:03:00,
2013-02-17 06:19:00,20.3,9.0,29.95,NW,315,2.7,-999.0,61,-99.99,,,0.00,Acu-Link.com,2013-02-17 11:19:00,
2013-02-17 06:34:00,19.9,8.7,29.95,NW,315,13.4,-999.0,61,-99.99,,,0.00,Acu-Link.com,2013-02-17 11:34:00,
2013-02-17 06:49:00,19.6,8.0,29.94,NW,315,9.4,-999.0,60,-99.99,,,0.01,Acu-Link.com,2013-02-17 11:49:00,
2013-02-17 07:04:00,19.4,7.4,29.92,NW,315,9.4,-999.0,59,-99.99,,,0.01,Acu-Link.com,2013-02-17 12:04:00,
2013-02-17 07:20:00,19.2,7.6,29.93,West,270,6.7,-999.0,60,-99.99,,,0.01,Acu-Link.com,2013-02-17 12:20:00,
2013-02-17 07:35:00,19.0,7.5,29.92,WNW,292,14.5,-999.0,60,-99.99,,,0.01,Acu-Link.com,2013-02-17 12:35:00,
2013-02-17 07:50:00,19.0,8.2,29.92,West,270,9.4,-999.0,62,-99.99,,,0.01,Acu-Link.com,2013-02-17 12:50:00,
2013-02-17 08:05:00,19.0,8.5,29.93,West,270,6.7,-999.0,63,-99.99,,,0.01,Acu-Link.com,2013-02-17 13:05:00,
2013-02-17 08:20:00,18.9,8.4,29.92,WSW,247,11.0,-999.0,63,-99.99,,,0.01,Acu-Link.com,2013-02-17 13:20:00,
2013-02-17 08:36:00,19.2,8.7,29.92,ESE,112,18.6,-999.0,63,-99.99,,,0.01,Acu-Link.com,2013-02-17 13:36:00,
2013-02-17 08:51:00,19.2,8.7,29.91,West,270,18.6,-999.0,63,-99.99,,,0.01,Acu-Link.com,2013-02-17 13:51:00,
2013-02-17 09:06:00,19.0,8.2,29.90,NW,315,9.8,-999.0,62,-99.99,,,0.01,Acu-Link.com,2013-02-17 14:06:00,
2013-02-17 09:21:00,19.4,8.5,29.88,North,0,13.4,-999.0,62,-99.99,,,0.04,Acu-Link.com,2013-02-17 14:21:00,
2013-02-17 09:36:00,20.5,9.2,29.88,West,270,9.8,-999.0,61,-99.99,,,0.05,Acu-Link.com,2013-02-17 14:36:00,
2013-02-17 09:52:00,20.1,8.5,29.90,NW,315,20.1,-999.0,60,-99.99,,,0.07,Acu-Link.com,2013-02-17 14:52:00,
2013-02-17 10:07:00,21.4,9.3,29.89,NW,315,16.1,-999.0,59,-99.99,,,0.07,Acu-Link.com,2013-02-17 15:07:00,
2013-02-17 10:22:00,21.6,9.5,29.89,NW,315,21.7,-999.0,59,-99.99,,,0.07,Acu-Link.com,2013-02-17 15:22:00,
2013-02-17 10:37:00,21.2,9.1,29.89,West,270,11.4,-999.0,59,-99.99,,,0.07,Acu-Link.com,2013-02-17 15:37:00,
2013-02-17 10:52:00,21.2,9.1,29.90,NW,315,16.6,-999.0,59,-99.99,,,0.08,Acu-Link.com,2013-02-17 15:52:00,
2013-02-17 11:08:00,23.2,10.2,29.91,West,270,18.6,-999.0,57,-99.99,,,0.17,Acu-Link.com,2013-02-17 16:08:00,
2013-02-17 11:23:00,22.1,9.2,29.90,WNW,292,13.4,-999.0,57,-99.99,,,0.19,Acu-Link.com,2013-02-17 16:23:00,
2013-02-17 11:38:00,22.8,9.5,29.91,NW,315,20.1,-999.0,56,-99.99,,,0.20,Acu-Link.com,2013-02-17 16:38:00,
2013-02-17 11:53:00,23.0,8.5,29.90,West,270,12.5,-999.0,53,-99.99,,,0.20,Acu-Link.com,2013-02-17 16:53:00,
2013-02-17 12:09:00,24.8,9.3,29.90,NW,315,19.7,-999.0,51,-99.99,,,0.23,Acu-Link.com,2013-02-17 17:09:00,
2013-02-17 12:24:00,24.6,8.2,29.90,NW,315,7.8,-999.0,49,-99.99,,,0.27,Acu-Link.com,2013-02-17 17:24:00,
2013-02-17 12:39:00,25.3,8.4,29.91,West,270,17.0,-999.0,48,-99.99,,,0.32,Acu-Link.com,2013-02-17 17:39:00,
2013-02-17 12:54:00,25.5,8.1,29.91,NNW,337,7.4,-999.0,47,-99.99,,,0.32,Acu-Link.com,2013-02-17 17:54:00,
2013-02-17 13:09:00,24.8,7.0,29.91,WNW,292,21.3,-999.0,46,-99.99,,,0.32,Acu-Link.com,2013-02-17 18:09:00,
2013-02-17 13:25:00,25.5,7.7,29.91,WNW,292,13.0,-999.0,46,-99.99,,,0.32,Acu-Link.com,2013-02-17 18:25:00,
2013-02-17 13:40:00,25.7,6.8,29.92,West,270,11.9,-999.0,44,-99.99,,,0.35,Acu-Link.com,2013-02-17 18:40:00,
2013-02-17 13:55:00,26.6,7.2,29.92,WNW,292,16.1,-999.0,43,-99.99,,,0.36,Acu-Link.com,2013-02-17 18:55:00,
2013-02-17 14:10:00,25.7,6.3,29.93,NW,315,14.1,-999.0,43,-99.99,,,0.36,Acu-Link.com,2013-02-17 19:10:00,
2013-02-17 14:25:00,25.7,5.8,29.93,WNW,292,17.7,-999.0,42,-99.99,,,0.46,Acu-Link.com,2013-02-17 19:25:00,
2013-02-17 14:41:00,26.2,5.8,29.93,WNW,292,26.8,-999.0,41,-99.99,,,0.50,Acu-Link.com,2013-02-17 19:41:00,
2013-02-17 14:56:00,26.2,5.8,29.93,West,270,21.3,-999.0,41,-99.99,,,0.53,Acu-Link.com,2013-02-17 19:56:00,
2013-02-17 15:11:00,26.2,5.2,29.94,NW,315,18.6,-999.0,40,-99.99,,,0.53,Acu-Link.com,2013-02-17 20:11:00,
2013-02-17 15:26:00,25.2,5.8,29.96,NW,315,11.0,-999.0,43,-99.99,,,0.56,Acu-Link.com,2013-02-17 20:26:00,
2013-02-17 15:41:00,25.9,6.5,29.95,West,270,8.9,-999.0,43,-99.99,,,0.60,Acu-Link.com,2013-02-17 20:41:00,
2013-02-17 15:57:00,24.8,5.0,29.96,NW,315,16.6,-999.0,42,-99.99,,,0.69,Acu-Link.com,2013-02-17 20:57:00,
2013-02-17 16:12:00,24.1,4.9,29.97,NW,315,8.3,-999.0,43,-99.99,,,0.70,Acu-Link.com,2013-02-17 21:12:00,
2013-02-17 16:27:00,23.0,5.3,29.99,NW,315,9.8,-999.0,46,-99.99,,,0.78,Acu-Link.com,2013-02-17 21:27:00,
2013-02-17 16:42:00,22.5,5.3,29.99,West,270,16.1,-999.0,47,-99.99,,,0.79,Acu-Link.com,2013-02-17 21:42:00,
2013-02-17 16:57:00,21.7,4.7,29.99,NW,315,16.6,-999.0,47,-99.99,,,0.79,Acu-Link.com,2013-02-17 21:57:00,
2013-02-17 17:13:00,21.0,4.9,30.00,NW,315,15.0,-999.0,49,-99.99,,,0.83,Acu-Link.com,2013-02-17 22:13:00,
2013-02-17 17:28:00,20.7,5.4,30.01,SSW,202,13.4,-999.0,51,-99.99,,,0.83,Acu-Link.com,2013-02-17 22:28:00,
2013-02-17 17:43:00,19.9,5.2,30.01,West,270,22.1,-999.0,52,-99.99,,,0.92,Acu-Link.com,2013-02-17 22:43:00,
2013-02-17 17:58:00,19.4,5.1,30.02,West,270,24.8,-999.0,53,-99.99,,,0.93,Acu-Link.com,2013-02-17 22:58:00,
2013-02-17 18:14:00,19.0,4.3,30.03,West,270,34.4,-999.0,52,-99.99,,,1.04,Acu-Link.com,2013-02-17 23:14:00,
2013-02-17 18:29:00,18.1,4.3,30.04,NNW,337,11.9,-999.0,54,-99.99,,,1.15,Acu-Link.com,2013-02-17 23:29:00,
2013-02-17 18:44:00,17.6,3.8,30.05,WNW,292,11.9,-999.0,54,-99.99,,,1.26,Acu-Link.com,2013-02-17 23:44:00,
2013-02-17 18:59:00,17.1,3.7,30.06,NW,315,21.7,-999.0,55,-99.99,,,1.26,Acu-Link.com,2013-02-17 23:59:00,
2013-02-17 19:14:00,16.7,3.8,30.06,NW,315,7.8,-999.0,56,-99.99,,,1.35,Acu-Link.com,2013-02-18 00:14:00,
2013-02-17 19:30:00,16.3,3.4,30.07,NW,315,15.4,-999.0,56,-99.99,,,1.39,Acu-Link.com,2013-02-18 00:30:00,
2013-02-17 19:45:00,15.8,2.9,30.07,WNW,292,19.0,-999.0,56,-99.99,,,1.47,Acu-Link.com,2013-02-18 00:45:00,
2013-02-17 20:00:00,15.3,2.8,30.08,West,270,22.1,-999.0,57,-99.99,,,1.47,Acu-Link.com,2013-02-18 01:00:00,
2013-02-17 20:15:00,15.1,3.4,30.08,WNW,292,19.0,-999.0,59,-99.99,,,1.48,Acu-Link.com,2013-02-18 01:15:00,
2013-02-17 20:30:00,14.7,3.0,30.08,NW,315,18.6,-999.0,59,-99.99,,,1.76,Acu-Link.com,2013-02-18 01:30:00,
2013-02-17 20:46:00,14.4,3.4,30.09,WNW,292,27.3,-999.0,61,-99.99,,,1.87,Acu-Link.com,2013-02-18 01:46:00,
2013-02-17 21:01:00,14.2,3.2,30.10,West,270,17.7,-999.0,61,-99.99,,,1.93,Acu-Link.com,2013-02-18 02:01:00,
2013-02-17 21:16:00,14.0,3.4,30.11,WNW,292,24.2,-999.0,62,-99.99,,,2.02,Acu-Link.com,2013-02-18 02:16:00,
2013-02-17 21:31:00,14.0,3.4,30.12,West,270,14.1,-999.0,62,-99.99,,,2.04,Acu-Link.com,2013-02-18 02:31:00,
2013-02-17 21:46:00,13.8,3.6,30.12,West,270,12.5,-999.0,63,-99.99,,,2.05,Acu-Link.com,2013-02-18 02:46:00,
2013-02-17 22:02:00,13.8,3.9,30.12,WNW,292,15.4,-999.0,64,-99.99,,,2.05,Acu-Link.com,2013-02-18 03:02:00,
2013-02-17 22:17:00,13.5,3.6,30.13,NW,315,7.8,-999.0,64,-99.99,,,2.10,Acu-Link.com,2013-02-18 03:17:00,
2013-02-17 22:32:00,13.5,3.6,30.14,NW,315,11.4,-999.0,64,-99.99,,,2.10,Acu-Link.com,2013-02-18 03:32:00,
2013-02-17 22:47:00,13.5,3.9,30.14,West,270,7.4,-999.0,65,-99.99,,,2.17,Acu-Link.com,2013-02-18 03:47:00,
2013-02-17 23:02:00,13.3,3.7,30.14,NW,315,15.0,-999.0,65,-99.99,,,2.20,Acu-Link.com,2013-02-18 04:02:00,
2013-02-17 23:18:00,13.3,3.7,30.15,NW,315,15.0,-999.0,65,-99.99,,,2.22,Acu-Link.com,2013-02-18 04:18:00,
2013-02-17 23:33:00,13.3,4.1,30.16,NNW,337,16.1,-999.0,66,-99.99,,,2.28,Acu-Link.com,2013-02-18 04:33:00,
2013-02-17 23:48:00,13.3,4.4,30.17,SW,225,14.1,-999.0,67,-99.99,,,2.28,Acu-Link.com,2013-02-18 04:48:00,